Home   Weather   Tallahassee   Past weeks

Flag for USA Past Weather in Tallahassee, Florida, USA — Yesterday and Last 2 Weeks

Now
65 °F

Light rain. Low clouds.


Feels Like: 65 °F
Forecast: 63 / 76 °F
Wind: 3 mph from Southeast

Location: Tallahassee Regional Airport

Current Time: Jan 20, 2017 at 2:52:38 am

Latest Report: Jan 20, 2017 at 1:53 am


Visibility: 7 mi

Pressure: 29.92 "Hg

Humidity: 100%

Dew Point: 65 °F

Location of TallahasseeLocation

Past Weather in Tallahassee — Graph

°F

Tallahassee Temperature Yesterday

Maximum temperature yesterday: 75 °F (at 2:53 pm)
Minimum temperature yesterday: 59 °F (at 7:53 am)
Average temperature yesterday: 65 °F

High & Low Weather Summary for the Past Weeks

 TemperatureHumidityPressure
High80 °F (Jan 13, 1:53 pm)100% (Jan 6, 1:53 am)30.70 "Hg (Jan 6, 1:53 am)
Low23 °F (Jan 9, 12:53 am)21% (Jan 8, 3:53 pm)29.87 "Hg (Jan 6, 11:00 pm)
Average55 °F79%30.25 "Hg
* Reported Jan 5 12:53 am — Jan 20 12:53 am, Tallahassee, Weather by CustomWeather, © 2017

Note: Actual official high and low records may vary slightly from our data, if they occured in-between our weather recording intervals... More about our weather records

Advertising

Tallahassee Weather History for the Previous 24 Hours

Scroll right to see more
 ConditionsComfort  
Time TempWeatherWind HumidityBarometerVisibility
12:53 am
Fri, Jan 20
64 °FLow clouds.No wind100%29.92 "Hg10 mi
12:20 am64 °FPassing clouds.No wind100%29.93 "Hg10 mi
12:07 am64 °FPassing clouds.No wind100%29.94 "Hg10 mi
10:53 pm
Thu, Jan 19
65 °FMostly cloudy.No wind97%29.95 "Hg10 mi
9:53 pm65 °FMostly cloudy.3 mph97%29.93 "Hg10 mi
9:33 pm66 °FPassing clouds.6 mph93%29.95 "Hg10 mi
8:53 pm66 °FPassing clouds.7 mph96%29.93 "Hg10 mi
8:24 pm66 °FLow clouds.6 mph96%29.93 "Hg10 mi
8:02 pm67 °FLow clouds.6 mph93%29.93 "Hg10 mi
7:53 pm67 °FLow clouds.10 mph93%29.92 "Hg10 mi
6:53 pm67 °FLow clouds.8 mph97%29.93 "Hg10 mi
6:40 pm67 °FPassing clouds.10 mph93%29.94 "Hg10 mi
5:53 pm70 °FScattered clouds.7 mph84%29.93 "Hg10 mi
4:53 pm73 °FScattered clouds.12 mph76%29.94 "Hg10 mi
3:53 pm75 °FPartly sunny.10 mph71%29.95 "Hg10 mi
2:53 pm75 °FBroken clouds.12 mph71%29.96 "Hg10 mi
2:10 pm73 °FBroken clouds.12 mph79%29.98 "Hg10 mi
1:53 pm74 °FPartly sunny.12 mph76%29.98 "Hg10 mi
12:53 pm71 °FPartly sunny.7 mph84%30.01 "Hg10 mi
12:06 pm67 °FLow clouds.3 mph93%30.04 "Hg10 mi
11:53 am66 °FLow clouds.No wind96%30.05 "Hg10 mi
11:15 am64 °FFog.5 mph100%30.06 "Hg3 mi
11:02 am64 °FFog.5 mph100%30.07 "Hg2 mi
10:53 am63 °FFog.5 mph100%30.06 "Hg1 mi
10:32 am63 °FFog.3 mph100%30.07 "Hg1 mi
9:53 am62 °FFog.3 mph100%30.05 "Hg0 mi
8:53 am60 °FFog.No wind100%30.05 "Hg0 mi
7:53 am59 °FFog.No wind100%30.04 "Hg0 mi
6:53 am60 °FFog.No wind100%30.04 "Hg0 mi
5:53 am60 °FFog.No wind100%30.03 "Hg0 mi
4:53 am61 °FFog.No wind100%30.04 "Hg0 mi
3:53 am62 °FFog.No wind100%30.05 "Hg0 mi
3:36 am62 °FFog.No wind100%30.06 "Hg0 mi
3:06 am62 °FFog.No wind100%30.06 "Hg0 mi
2:16 am62 °FFog.No wind100%30.07 "Hg1 mi
Weather by CustomWeather, © 2017

See weather overviewHow to use our weather pages